Newport, AR

11:55 PM CDT on March 25, 2017 (GMT -0500)
Newport

Weather History for KM19 - October, 2011

Change the Weather History Date:

Saturday, October 22, 2011

  Actual Average (KBVX) Record (KBVX)
Temperature  
Mean Temperature 58 °F -  
Max Temperature 74 °F 71 °F 87 °F (1953)
Min Temperature 41 °F 46 °F 23 °F (1952)
Degree Days  
Heating Degree Days 8    
Growing Degree Days 8 (Base 50)    
Moisture  
Dew Point 44 °F    
Average Humidity 69    
Maximum Humidity 97    
Minimum Humidity 34    
Precipitation  
Precipitation 0.00 in - - ()
Sea Level Pressure  
Sea Level Pressure 30.12 in    
Wind  
Wind Speed 6 mph (South)    
Max Wind Speed 15 mph    
Max Gust Speed 20 mph    
Averages and records for this station are not official NWS values.
T = Trace of Precipitation, MM = Missing Value Source: NWS Daily Summary

Daily Weather History Graph

Daily Weather History Graph

Search for Another Location

Airport or City:

Trip Planner

Search our weather history database for the weather conditions in past years. The results will help you decide how hot, cold, wet, or windy it might be!

Date:

Astronomy

Oct. 22, 2011 Rise Set
Actual Time 7:17 AM CDT 6:20 PM CDT
Civil Twilight 6:51 AM CDT 6:46 PM CDT
Nautical Twilight 6:21 AM CDT 7:16 PM CDT
Astronomical Twilight 5:51 AM CDT 7:45 PM CDT
Moon 2:24 AM CDT (10/22) 3:30 PM CDT (10/22)
Length of Visible Light 11h 55m
Length of Day
11h 03m
Waning Crescent, 23% of the Moon is Illuminated
Oct 22
Waning Crescent
Oct 26
New
Nov 2
First Quarter
Nov 10
Full
Nov 18
Last Quarter

Hourly Weather History & Observations

Time (CDT) Temp. Windchill Dew Point Humidity Pressure Visibility Wind Dir Wind Speed Gust Speed Precip Events Conditions
12:56 AM 45.0 °F 42.6 °F 39.9 °F 82% 30.16 in - SSW 4.6 mph - N/A   Clear
1:56 AM 43.9 °F 42.3 °F 39.9 °F 86% 30.16 in - SSE 3.5 mph - N/A   Clear
2:56 AM 43.0 °F 41.3 °F 39.9 °F 89% 30.16 in - South 3.5 mph - N/A   Clear
3:56 AM 41.9 °F 40.0 °F 41.0 °F 97% 30.16 in - SSE 3.5 mph - N/A   Clear
4:56 AM 43.0 °F - 39.9 °F 89% 30.17 in - Calm Calm - N/A   Clear
5:56 AM 41.9 °F 40.0 °F 38.8 °F 89% 30.18 in - South 3.5 mph - N/A   Clear
6:56 AM 41.0 °F 39.0 °F 37.9 °F 89% 30.18 in - SE 3.5 mph - N/A   Clear
7:56 AM 41.9 °F 40.0 °F 38.8 °F 89% 30.18 in - SSE 3.5 mph - N/A   Clear
8:56 AM 48.9 °F - 43.9 °F 83% 30.19 in - South 8.1 mph - N/A   Clear
9:56 AM 56.8 °F - 45.9 °F 67% 30.19 in - South 11.5 mph - N/A   Clear
11:56 AM 68.0 °F - 43.0 °F 40% 30.16 in - South 15.0 mph 19.6 mph N/A   Clear
12:56 PM 70.9 °F - 41.9 °F 35% 30.13 in - SSW 9.2 mph - N/A   Clear
1:56 PM 72.9 °F - 43.0 °F 34% 30.10 in - SSW 6.9 mph - N/A   Clear
2:56 PM 73.9 °F - 45.0 °F 35% 30.08 in - South 9.2 mph - N/A   Clear
3:56 PM 74.8 °F - 45.9 °F 36% 30.07 in - SSW 5.8 mph - N/A   Clear
4:56 PM 73.9 °F - 45.9 °F 37% 30.06 in - SSW 8.1 mph - N/A   Clear
6:56 PM 63.0 °F - 48.9 °F 60% 30.06 in - South 5.8 mph - N/A   Clear
7:56 PM 59.0 °F - 50.0 °F 72% 30.06 in - SSE 6.9 mph - N/A   Clear
8:56 PM 55.9 °F - 48.9 °F 77% 30.05 in - SSE 10.4 mph - N/A   Clear
9:56 PM 54.9 °F - 47.8 °F 77% 30.06 in - SSE 5.8 mph - N/A   Clear
10:56 PM 55.9 °F - 47.8 °F 74% 30.06 in - South 5.8 mph - N/A   Clear
11:56 PM 52.9 °F - 46.9 °F 80% 30.04 in - SSE 6.9 mph - N/A   Clear